Regional Weather Roundup
Issued by NWS Nashville, TN

Home | Current Version | Previous Version | Text Only | Print | Product List | Glossary On
Versions: 1 2 3 4 5 6 7 8 9 10 11 12 13 14 15 16 17 18 19 20 21 22 23 24 25 26 27 28
000
ASUS44 KOHX 241710
RWROHX
MIDDLE TENNESSEE HOURLY WEATHER ROUNDUP
NATIONAL WEATHER SERVICE NASHVILLE TN
1200 PM CDT SUN JUL 24 2016

NOTE: "FAIR" INDICATES FEW OR NO CLOUDS BELOW 12,000 FEET WITH
NO SIGNIFICANT WEATHER AND/OR OBSTRUCTIONS TO VISIBILITY.

* THESE REPORTS ARE NOT UNDER NWS QUALITY CONTROL AND MAY NOT
  REPORT WEATHER SUCH AS PRECIPITATION AND FOG.


TNZ005>011-023>034-057-059-062>066-078-080-241800
...NORTHERN MIDDLE TENNESSEE...

CITY           SKY/WX    TMP DP  RH WIND       PRES   REMARKS
CLARKSVILLE    MOSUNNY   87  74  64 SW8       30.03F HX  95
CROSSVILLE     PTSUNNY   85  71  63 W7        30.13S HX  90
NASHVILLE      PTSUNNY   92  71  50 VRB5      30.04F HX  98
SMYRNA         MOSUNNY   92  74  55 SE3       30.05F HX 101
SPARTA         MOSUNNY   91  79  66 W5        30.07S HX 107
$$
TNZ056-058-060-061-075>077-079-093>097-241800
...SOUTHERN MIDDLE TENNESSEE...

CITY           SKY/WX    TMP DP  RH WIND       PRES   REMARKS
COLUMBIA       MOSUNNY   90  79  70 S3        30.04R HX 105
FAYETTEVILLE   MOSUNNY   88  77  70 SE5       30.06F HX 100
MCMINNVILLE    MOSUNNY   90  75  62 W10       30.08S HX 100
SHELBYVILLE    MOSUNNY   90  77  66 S8        30.07F HX 102
TULLAHOMA      SUNNY     88  73  62 SW7       30.09F HX  96
WINCHESTER     CLOUDY    86  75  70 NW7       30.07S HX  95
$$


...KEY TO REMARKS...
VSB - VISIBILITY IN MILES
WCI - WIND CHILL INDEX
HX  - HEAT INDEX





USA.gov is the U.S. government's official web portal to all federal, state and local government web resources and services.